BEL3JZ EDDB-EBBR

Flight info

Callsign BEL3JZ
Flight time 1h 3m
Altitude 38000
Route KISUC1Q KISUC Z20 MAG Z92 ABGUS DCT TOLTA DCT ABAMI Z717 NEREL T855 BATTY
Aircraft A319/M-SDE3FGHIRWY/LB1

Departure

Time 2026-05-05 17:13
Airport Berlin Brandenburg Airport (EDDB)

Arrival

Time 2026-05-05 18:17
Airport Brussels Airport (EBBR)
Time Latitude Longitude Altitude Speed Heading
2026-05-05 16:27 52.36284 13.50660 155 ft 0 kts 69°
2026-05-05 17:01 52.36282 13.50650 155 ft 4 kts 68°
2026-05-05 17:01 52.36272 13.50607 155 ft 4 kts 61°
2026-05-05 17:01 52.36265 13.50562 155 ft 4 kts 97°
2026-05-05 17:01 52.36273 13.50527 155 ft 3 kts 124°
2026-05-05 17:02 52.36288 13.50500 155 ft 3 kts 157°
2026-05-05 17:02 52.36288 13.50499 155 ft 0 kts 159°
2026-05-05 17:06 52.36283 13.50503 155 ft 2 kts 158°
2026-05-05 17:06 52.36264 13.50516 155 ft 4 kts 158°
2026-05-05 17:06 52.36231 13.50537 155 ft 6 kts 158°
2026-05-05 17:06 52.36185 13.50566 155 ft 8 kts 159°
2026-05-05 17:07 52.36125 13.50603 155 ft 10 kts 159°
2026-05-05 17:07 52.36051 13.50650 155 ft 12 kts 159°
2026-05-05 17:07 52.35969 13.50702 155 ft 13 kts 159°
2026-05-05 17:07 52.35883 13.50755 155 ft 13 kts 159°
2026-05-05 17:08 52.35850 13.50776 155 ft 1 kts 159°
2026-05-05 17:08 52.35834 13.50775 155 ft 5 kts 186°
2026-05-05 17:08 52.35799 13.50731 155 ft 9 kts 243°
2026-05-05 17:08 52.35771 13.50616 155 ft 13 kts 248°
2026-05-05 17:09 52.35732 13.50455 154 ft 17 kts 249°
2026-05-05 17:09 52.35684 13.50250 154 ft 22 kts 249°
2026-05-05 17:09 52.35627 13.50010 154 ft 23 kts 249°
2026-05-05 17:09 52.35569 13.49767 154 ft 23 kts 249°
2026-05-05 17:10 52.35511 13.49523 154 ft 23 kts 249°
2026-05-05 17:10 52.35454 13.49280 154 ft 23 kts 249°
2026-05-05 17:10 52.35395 13.49034 154 ft 23 kts 249°
2026-05-05 17:10 52.35336 13.48787 154 ft 23 kts 249°
2026-05-05 17:11 52.35279 13.48550 154 ft 14 kts 248°
2026-05-05 17:11 52.35214 13.48484 154 ft 12 kts 168°
2026-05-05 17:11 52.35137 13.48534 154 ft 11 kts 157°
2026-05-05 17:11 52.35117 13.48555 154 ft 0 kts 141°
2026-05-05 17:12 52.35106 13.48596 154 ft 14 kts 112°
2026-05-05 17:12 52.35076 13.48896 154 ft 39 kts 95°
2026-05-05 17:12 52.35175 13.49521 155 ft 89 kts 68°
2026-05-05 17:13 52.35483 13.50791 155 ft 148 kts 69°
2026-05-05 17:13 52.35887 13.52499 575 ft 163 kts 69°
2026-05-05 17:13 52.35870 13.54343 1196 ft 172 kts 115°
2026-05-05 17:13 52.35040 13.55785 1908 ft 179 kts 139°
2026-05-05 17:14 52.33830 13.56409 2296 ft 206 kts 181°
2026-05-05 17:14 52.32429 13.55697 2827 ft 221 kts 209°
2026-05-05 17:14 52.31123 13.54148 3246 ft 244 kts 218°
2026-05-05 17:14 52.29741 13.52357 3826 ft 263 kts 219°
2026-05-05 17:15 52.28663 13.50940 4519 ft 268 kts 219°
2026-05-05 17:15 52.27323 13.48811 5501 ft 270 kts 234°
2026-05-05 17:15 52.26489 13.46063 6378 ft 273 kts 254°
2026-05-05 17:15 52.26269 13.43003 6694 ft 272 kts 271°
2026-05-05 17:16 52.26289 13.39915 6810 ft 272 kts 270°
2026-05-05 17:16 52.26302 13.37061 6838 ft 271 kts 270°
2026-05-05 17:16 52.26308 13.33974 6840 ft 272 kts 270°
2026-05-05 17:16 52.26309 13.30923 6840 ft 272 kts 270°
2026-05-05 17:17 52.26305 13.27834 6841 ft 271 kts 269°
2026-05-05 17:17 52.26275 13.24765 6840 ft 271 kts 265°
2026-05-05 17:17 52.25894 13.21740 6959 ft 276 kts 250°
2026-05-05 17:17 52.25060 13.18904 7920 ft 276 kts 239°
2026-05-05 17:18 52.24184 13.16544 8832 ft 277 kts 239°
2026-05-05 17:18 52.23188 13.13848 9811 ft 278 kts 239°
2026-05-05 17:18 52.22161 13.11069 10362 ft 296 kts 239°
2026-05-05 17:18 52.21053 13.08078 10661 ft 320 kts 239°
2026-05-05 17:19 52.19869 13.04900 10907 ft 342 kts 239°
2026-05-05 17:19 52.18611 13.01524 11425 ft 353 kts 238°
2026-05-05 17:19 52.17329 12.98078 12147 ft 358 kts 239°
2026-05-05 17:19 52.16283 12.94379 12887 ft 362 kts 251°
2026-05-05 17:20 52.15664 12.90397 13630 ft 367 kts 256°
2026-05-05 17:20 52.15093 12.86301 14292 ft 371 kts 256°
2026-05-05 17:20 52.14614 12.82893 14829 ft 374 kts 256°
2026-05-05 17:20 52.14033 12.78758 15497 ft 377 kts 256°
2026-05-05 17:21 52.13443 12.74577 16172 ft 379 kts 256°
2026-05-05 17:21 52.12846 12.70375 16828 ft 382 kts 256°
2026-05-05 17:21 52.12381 12.67111 17328 ft 385 kts 256°
2026-05-05 17:22 52.11174 12.58691 18545 ft 391 kts 256°
2026-05-05 17:22 52.10553 12.54368 19097 ft 393 kts 256°
2026-05-05 17:22 52.09927 12.50015 19631 ft 396 kts 256°
2026-05-05 17:22 52.09294 12.45634 20161 ft 398 kts 255°
2026-05-05 17:23 52.08748 12.41882 20598 ft 400 kts 255°
2026-05-05 17:23 52.08119 12.37566 20794 ft 401 kts 255°
2026-05-05 17:23 52.07466 12.33096 20849 ft 401 kts 255°
2026-05-05 17:23 52.06820 12.28671 20841 ft 402 kts 255°
2026-05-05 17:24 52.06171 12.24255 20844 ft 402 kts 255°
2026-05-05 17:24 52.05530 12.19900 20841 ft 402 kts 255°
2026-05-05 17:24 52.04874 12.15461 21156 ft 405 kts 255°
2026-05-05 17:24 52.04221 12.11050 21677 ft 407 kts 255°
2026-05-05 17:25 52.03557 12.06559 22183 ft 409 kts 255°
2026-05-05 17:25 52.03118 12.03592 22504 ft 411 kts 255°
2026-05-05 17:25 52.02216 11.97530 23141 ft 414 kts 254°
2026-05-05 17:25 52.01559 11.93128 23559 ft 416 kts 254°
2026-05-05 17:26 52.00870 11.88534 23953 ft 418 kts 254°
2026-05-05 17:26 52.00174 11.83924 24343 ft 420 kts 254°
2026-05-05 17:26 51.99484 11.79364 24740 ft 422 kts 254°
2026-05-05 17:26 51.98812 11.75081 25078 ft 424 kts 253°
2026-05-05 17:27 51.98051 11.70508 25444 ft 425 kts 252°
2026-05-05 17:27 51.97254 11.65876 25817 ft 427 kts 252°
2026-05-05 17:27 51.96444 11.61232 26177 ft 428 kts 252°
2026-05-05 17:27 51.95637 11.56625 26523 ft 430 kts 252°
2026-05-05 17:28 51.94818 11.51952 26858 ft 432 kts 252°
2026-05-05 17:28 51.94329 11.49159 27049 ft 433 kts 252°
2026-05-05 17:28 51.93514 11.44452 27380 ft 435 kts 252°
2026-05-05 17:28 51.92696 11.39699 27713 ft 437 kts 252°
2026-05-05 17:29 51.91877 11.34947 28051 ft 439 kts 252°
2026-05-05 17:29 51.91058 11.30226 28406 ft 440 kts 252°
2026-05-05 17:29 51.90419 11.26556 28790 ft 439 kts 252°
2026-05-05 17:29 51.89545 11.21549 29291 ft 437 kts 251°
2026-05-05 17:30 51.88721 11.16817 29768 ft 436 kts 251°
2026-05-05 17:30 51.87899 11.12106 30205 ft 434 kts 251°
2026-05-05 17:30 51.87186 11.08032 30573 ft 433 kts 251°
2026-05-05 17:30 51.86483 11.03283 30989 ft 433 kts 257°
2026-05-05 17:31 51.86077 10.98932 31386 ft 432 kts 258°
2026-05-05 17:31 51.85592 10.94147 31822 ft 429 kts 257°
2026-05-05 17:31 51.85054 10.89409 32273 ft 427 kts 256°
2026-05-05 17:31 51.84495 10.84724 32717 ft 425 kts 255°
2026-05-05 17:32 51.83931 10.80042 33161 ft 423 kts 255°
2026-05-05 17:32 51.83421 10.75730 33592 ft 421 kts 256°
2026-05-05 17:32 51.82883 10.71066 34010 ft 420 kts 256°
2026-05-05 17:32 51.82362 10.66486 34338 ft 420 kts 256°
2026-05-05 17:33 51.81837 10.61847 34674 ft 420 kts 256°
2026-05-05 17:33 51.81310 10.57192 34993 ft 420 kts 256°
2026-05-05 17:33 51.80806 10.52758 35277 ft 420 kts 256°
2026-05-05 17:33 51.80288 10.48223 35512 ft 422 kts 256°
2026-05-05 17:34 51.79752 10.43546 35786 ft 422 kts 256°
2026-05-05 17:34 51.79215 10.38876 36069 ft 422 kts 256°
2026-05-05 17:34 51.78676 10.34219 36356 ft 422 kts 256°
2026-05-05 17:34 51.78149 10.29698 36634 ft 422 kts 256°
2026-05-05 17:35 51.77603 10.25048 36920 ft 421 kts 256°
2026-05-05 17:35 51.77056 10.20392 37198 ft 422 kts 256°
2026-05-05 17:35 51.76534 10.15967 37428 ft 422 kts 256°
2026-05-05 17:35 51.75990 10.11365 37675 ft 422 kts 256°
2026-05-05 17:36 51.75451 10.06813 37813 ft 423 kts 256°
2026-05-05 17:36 51.74345 9.97505 37833 ft 422 kts 256°
2026-05-05 17:37 51.73230 9.88194 37837 ft 422 kts 256°
2026-05-05 17:37 51.72136 9.79156 37836 ft 422 kts 256°
2026-05-05 17:38 51.71004 9.69846 37843 ft 423 kts 256°
2026-05-05 17:38 51.69895 9.60822 37825 ft 424 kts 256°
2026-05-05 17:39 51.68741 9.51472 37825 ft 425 kts 256°
2026-05-05 17:39 51.67681 9.42227 37830 ft 426 kts 257°
2026-05-05 17:40 51.66748 9.33309 37823 ft 426 kts 257°
2026-05-05 17:40 51.65759 9.23946 37813 ft 427 kts 257°
2026-05-05 17:41 51.64761 9.14843 37815 ft 427 kts 257°
2026-05-05 17:41 51.63713 9.05533 37822 ft 428 kts 257°
2026-05-05 17:42 51.62652 8.96107 37826 ft 428 kts 257°
2026-05-05 17:42 51.61728 8.87870 37833 ft 428 kts 257°
2026-05-05 17:43 51.60663 8.78436 37841 ft 428 kts 256°
2026-05-05 17:43 51.59597 8.69084 37854 ft 428 kts 256°
2026-05-05 17:44 51.58636 8.60733 37847 ft 429 kts 256°
2026-05-05 17:44 51.57535 8.51319 37847 ft 429 kts 256°
2026-05-05 17:45 51.56467 8.42179 37844 ft 429 kts 256°
2026-05-05 17:45 51.55359 8.32742 37844 ft 429 kts 256°
2026-05-05 17:46 51.54264 8.23429 37843 ft 429 kts 256°
2026-05-05 17:46 51.53155 8.14118 37862 ft 429 kts 256°
2026-05-05 17:47 51.52014 8.04733 37839 ft 430 kts 256°
2026-05-05 17:47 51.50932 7.95770 37836 ft 431 kts 256°
2026-05-05 17:48 51.49788 7.86310 37835 ft 432 kts 256°
2026-05-05 17:48 51.48635 7.76943 37838 ft 432 kts 256°
2026-05-05 17:49 51.47472 7.67560 37859 ft 432 kts 256°
2026-05-05 17:49 51.46322 7.58275 37846 ft 432 kts 256°
2026-05-05 17:50 51.45156 7.48976 37837 ft 433 kts 255°
2026-05-05 17:50 51.43992 7.39810 37839 ft 433 kts 255°
2026-05-05 17:51 51.42613 7.30426 37846 ft 430 kts 247°
2026-05-05 17:51 51.40356 7.23443 37849 ft 425 kts 232°
2026-05-05 17:52 51.36926 7.16092 37844 ft 425 kts 231°
2026-05-05 17:52 51.33703 7.09190 37823 ft 426 kts 231°
2026-05-05 17:53 51.30551 7.02434 37838 ft 427 kts 231°
2026-05-05 17:53 51.27349 6.95588 37843 ft 427 kts 231°
2026-05-05 17:54 51.23759 6.87949 37851 ft 428 kts 231°
2026-05-05 17:54 51.21222 6.82571 37850 ft 428 kts 231°
2026-05-05 17:55 51.18011 6.75802 37853 ft 429 kts 231°
2026-05-05 17:55 51.14695 6.68811 37863 ft 429 kts 231°
2026-05-05 17:56 51.11366 6.61809 37639 ft 430 kts 231°
2026-05-05 17:56 51.09862 6.58654 37407 ft 432 kts 230°
2026-05-05 17:56 51.08618 6.56188 37231 ft 431 kts 226°
2026-05-05 17:56 51.06963 6.53371 37013 ft 431 kts 224°
2026-05-05 17:57 51.05272 6.50593 36782 ft 432 kts 223°
2026-05-05 17:57 51.03391 6.47613 36557 ft 432 kts 222°
2026-05-05 17:57 51.01246 6.44277 36294 ft 432 kts 221°
2026-05-05 17:57 50.99090 6.40947 36034 ft 433 kts 221°
2026-05-05 17:58 50.97407 6.38344 35839 ft 433 kts 221°
2026-05-05 17:58 50.95859 6.35940 35658 ft 433 kts 221°
2026-05-05 17:58 50.93751 6.32649 35412 ft 434 kts 221°
2026-05-05 17:58 50.91607 6.29288 35164 ft 434 kts 221°
2026-05-05 17:59 50.89942 6.26670 34967 ft 434 kts 221°
2026-05-05 17:59 50.87983 6.23591 34741 ft 434 kts 221°
2026-05-05 17:59 50.86222 6.20826 34170 ft 436 kts 221°
2026-05-05 17:59 50.84060 6.17440 33290 ft 438 kts 220°
2026-05-05 18:00 50.82150 6.14456 32424 ft 441 kts 221°
2026-05-05 18:00 50.80482 6.11854 31647 ft 444 kts 221°
2026-05-05 18:00 50.78268 6.08409 30588 ft 448 kts 221°
2026-05-05 18:00 50.76030 6.04939 29434 ft 454 kts 221°
2026-05-05 18:01 50.73966 6.01657 28234 ft 460 kts 224°
2026-05-05 18:01 50.71794 5.97899 26927 ft 466 kts 227°
2026-05-05 18:01 50.70278 5.94461 25885 ft 473 kts 239°
2026-05-05 18:01 50.69021 5.89776 24655 ft 477 kts 251°
2026-05-05 18:02 50.68369 5.85238 23576 ft 469 kts 261°
2026-05-05 18:02 50.68178 5.80215 22272 ft 461 kts 271°
2026-05-05 18:02 50.68562 5.75261 21022 ft 453 kts 282°
2026-05-05 18:02 50.69563 5.70540 20095 ft 453 kts 293°
2026-05-05 18:03 50.70969 5.66092 19188 ft 450 kts 296°
2026-05-05 18:03 50.72145 5.62439 18468 ft 447 kts 296°
2026-05-05 18:03 50.73553 5.58062 17600 ft 443 kts 295°
2026-05-05 18:03 50.74916 5.53805 16712 ft 438 kts 295°
2026-05-05 18:04 50.76273 5.49536 15910 ft 433 kts 295°
2026-05-05 18:04 50.77607 5.45328 15137 ft 429 kts 295°
2026-05-05 18:04 50.78756 5.41699 14495 ft 425 kts 296°
2026-05-05 18:04 50.80076 5.37531 13770 ft 422 kts 296°
2026-05-05 18:05 50.81379 5.33407 13122 ft 416 kts 297°
2026-05-05 18:05 50.82637 5.29420 12444 ft 412 kts 296°
2026-05-05 18:05 50.83910 5.25381 11748 ft 407 kts 296°
2026-05-05 18:05 50.85155 5.21432 11076 ft 402 kts 296°
2026-05-05 18:06 50.85940 5.18446 10583 ft 397 kts 288°
2026-05-05 18:06 50.86364 5.15992 10203 ft 394 kts 282°
2026-05-05 18:06 50.86606 5.10418 9298 ft 386 kts 265°
2026-05-05 18:06 50.86089 5.06375 8669 ft 379 kts 252°
2026-05-05 18:07 50.85221 5.02561 8514 ft 358 kts 250°
2026-05-05 18:07 50.84399 4.98941 8381 ft 339 kts 251°
2026-05-05 18:07 50.83704 4.95864 8265 ft 325 kts 251°
2026-05-05 18:07 50.83170 4.93495 8173 ft 314 kts 251°
2026-05-05 18:08 50.82454 4.90305 8049 ft 301 kts 251°
2026-05-05 18:08 50.81768 4.87247 7917 ft 290 kts 251°
2026-05-05 18:08 50.81096 4.84263 7796 ft 288 kts 251°
2026-05-05 18:08 50.80470 4.81489 7678 ft 286 kts 251°
2026-05-05 18:09 50.79857 4.78789 7556 ft 286 kts 251°
2026-05-05 18:09 50.79184 4.75833 7071 ft 290 kts 251°
2026-05-05 18:09 50.78501 4.72841 6566 ft 291 kts 251°
2026-05-05 18:09 50.78062 4.70916 6297 ft 290 kts 251°
2026-05-05 18:10 50.77383 4.67943 5945 ft 286 kts 251°
2026-05-05 18:10 50.76706 4.64984 5498 ft 284 kts 251°
2026-05-05 18:10 50.76084 4.62261 4976 ft 287 kts 251°
2026-05-05 18:10 50.75395 4.59256 4392 ft 288 kts 251°
2026-05-05 18:11 50.74730 4.56383 4209 ft 267 kts 251°
2026-05-05 18:11 50.74124 4.53777 4085 ft 246 kts 252°
2026-05-05 18:11 50.73555 4.51324 3898 ft 233 kts 252°
2026-05-05 18:11 50.73108 4.49375 3293 ft 243 kts 253°
2026-05-05 18:12 50.72943 4.46922 3064 ft 221 kts 289°
2026-05-05 18:12 50.73621 4.44984 3058 ft 195 kts 322°
2026-05-05 18:12 50.74734 4.43977 2992 ft 179 kts 351°
2026-05-05 18:12 50.75909 4.43945 2846 ft 166 kts 14°
2026-05-05 18:13 50.77008 4.44393 2631 ft 160 kts 17°
2026-05-05 18:13 50.78021 4.44801 2437 ft 140 kts 16°
2026-05-05 18:13 50.78924 4.45167 2254 ft 129 kts 17°
2026-05-05 18:13 50.79781 4.45515 2070 ft 125 kts 16°
2026-05-05 18:14 50.80619 4.45856 1905 ft 124 kts 16°
2026-05-05 18:14 50.81454 4.46195 1737 ft 123 kts 17°
2026-05-05 18:14 50.82280 4.46531 1569 ft 122 kts 17°
2026-05-05 18:14 50.83099 4.46864 1399 ft 122 kts 17°
2026-05-05 18:15 50.83911 4.47194 1233 ft 122 kts 17°
2026-05-05 18:15 50.84711 4.47519 1061 ft 122 kts 15°
2026-05-05 18:15 50.85535 4.47854 888 ft 123 kts 15°
2026-05-05 18:15 50.86356 4.48189 713 ft 120 kts 15°
2026-05-05 18:16 50.87073 4.48480 569 ft 122 kts 14°
2026-05-05 18:16 50.87888 4.48812 406 ft 121 kts 15°
2026-05-05 18:16 50.88705 4.49145 240 ft 122 kts 14°
2026-05-05 18:16 50.89354 4.49406 171 ft 109 kts 13°
2026-05-05 18:17 50.89966 4.49658 135 ft 72 kts 14°
2026-05-05 18:17 50.90217 4.49729 130 ft 12 kts 338°
2026-05-05 18:17 50.90290 4.49675 125 ft 12 kts 341°
2026-05-05 18:17 50.90358 4.49643 124 ft 0 kts 343°
2026-05-05 18:18 50.90364 4.49640 125 ft 0 kts 343°
2026-05-05 18:18 50.90369 4.49638 122 ft 0 kts 343°
2026-05-05 18:19 50.90370 4.49638 123 ft 0 kts 343°
2026-05-05 18:19 50.90382 4.49632 125 ft 3 kts 342°
2026-05-05 18:20 50.90404 4.49598 123 ft 5 kts 282°
2026-05-05 18:20 50.90389 4.49541 122 ft 6 kts 246°
2026-05-05 18:20 50.90369 4.49474 123 ft 7 kts 245°
2026-05-05 18:20 50.90351 4.49405 125 ft 6 kts 254°
2026-05-05 18:21 50.90354 4.49361 125 ft 3 kts 288°
2026-05-05 18:21 50.90354 4.49360 125 ft 0 kts 288°
2026-05-05 18:21 50.90368 4.49335 122 ft 6 kts 324°
2026-05-05 18:21 50.90428 4.49291 122 ft 13 kts 335°
2026-05-05 18:22 50.90521 4.49223 123 ft 15 kts 335°
2026-05-05 18:22 50.90619 4.49151 120 ft 17 kts 331°
2026-05-05 18:22 50.90620 4.48990 120 ft 17 kts 243°
2026-05-05 18:22 50.90570 4.48821 121 ft 17 kts 245°
2026-05-05 18:23 50.90519 4.48645 120 ft 18 kts 244°
2026-05-05 18:23 50.90470 4.48463 120 ft 18 kts 247°
2026-05-05 18:23 50.90424 4.48325 121 ft 9 kts 218°
2026-05-05 18:23 50.90378 4.48346 120 ft 6 kts 156°
2026-05-05 18:24 50.90348 4.48367 120 ft 2 kts 154°
2026-05-05 18:24 50.90341 4.48372 120 ft 0 kts 154°